GFSSW_250_rhum_087.txt.gz
RH
19 10 6 6 5 5 5 4 4 5 5 3 2 2 2 2 3 3 4 3 4 4 4 5 5 5 6 7 6 6 6 8 12 11 15 14 24 47 46 69 76 61 41 64 76
18 12 8 6 5 4 4 4 4 5 5 4 2 2 2 2 3 3 2 3 3 4 4 4 4 4 5 7 7 6 6 10 11 13 17 14 15 39 41 52 58 78 84 52 68
28 12 9 5 4 3 4 4 5 6 5 4 2 2 2 2 2 2 2 2 3 4 4 4 4 4 5 6 7 8 9 9 11 14 14 11 13 26 31 35 52 68 100 82 73
35 15 8 4 4 3 4 3 3 6 5 4 2 2 2 2 2 2 2 2 3 4 4 4 4 5 5 6 8 10 12 10 10 12 12 11 13 14 22 29 57 65 92 86 90
30 12 8 4 5 2 4 3 4 5 5 3 2 2 2 2 2 2 2 2 3 3 3 4 5 5 6 7 6 11 14 11 11 9 11 11 12 13 16 26 39 58 76 72 99
26 18 9 10 6 2 2 2 3 4 5 3 2 2 2 2 2 2 2 2 2 3 3 4 4 6 6 6 6 10 16 13 10 12 9 10 12 14 16 17 31 50 70 78 99
35 18 15 9 5 3 2 2 4 3 4 3 2 2 2 2 2 2 2 2 2 3 3 3 4 5 7 6 8 8 11 12 11 11 12 10 11 13 14 18 19 34 54 66 83
31 26 17 9 8 3 3 3 4 3 3 2 2 2 1 1 2 2 2 2 2 3 3 4 4 5 6 7 7 7 8 9 11 10 12 12 12 15 16 18 20 18 44 60 65
38 26 17 12 7 3 2 2 3 3 3 2 2 2 2 1 2 2 2 2 2 3 3 4 4 4 7 7 7 6 8 8 12 11 13 14 14 13 13 16 22 15 22 51 62
40 31 17 14 10 4 3 3 3 4 3 2 2 2 2 1 1 2 2 2 2 3 3 4 5 5 7 7 7 7 9 10 10 12 13 16 16 16 12 14 20 17 14 32 55
43 37 29 13 8 5 4 3 3 3 3 2 2 2 2 2 1 1 1 2 2 2 4 4 4 6 7 6 7 8 9 10 11 12 11 15 19 17 14 14 15 20 14 14 41
49 45 22 14 9 5 4 3 3 3 4 2 2 2 2 2 2 1 1 2 2 2 3 4 5 6 7 7 7 8 10 10 9 11 11 15 17 18 16 15 13 16 18 13 17
50 51 29 16 9 6 5 3 3 3 3 3 2 2 2 2 2 2 2 2 2 2 3 4 6 6 6 7 7 9 10 11 11 12 13 13 15 17 15 14 14 14 16 16 14
55 51 26 15 13 8 4 3 4 3 3 3 2 2 2 2 2 2 2 2 2 2 2 4 6 7 7 7 8 9 10 11 10 10 16 15 15 15 16 16 14 14 15 18 16
50 45 29 19 14 8 4 4 4 4 3 4 2 2 2 2 2 2 2 2 2 2 2 4 6 8 8 8 8 9 11 11 10 12 13 14 15 17 17 18 19 20 16 16 18
50 38 28 24 12 11 7 7 4 5 5 5 3 2 2 3 3 2 2 2 2 2 3 4 6 9 9 9 8 9 12 12 12 15 13 16 15 18 19 20 19 19 20 21 18
52 36 30 22 14 14 10 9 6 6 5 5 4 3 3 3 4 3 2 2 2 2 3 4 6 8 10 11 9 9 11 12 13 12 15 15 18 20 19 20 18 17 16 18 18
51 32 32 23 15 17 14 11 7 6 5 6 4 4 3 4 4 3 3 2 2 2 4 4 6 9 11 14 13 13 15 13 11 14 18 16 19 24 18 19 19 18 17 18 30
48 36 33 35 22 19 21 19 10 5 5 6 4 4 4 4 4 4 4 3 2 3 4 4 6 8 11 13 16 15 14 13 14 19 18 17 31 28 20 21 18 18 18 17 18
48 38 32 33 29 29 29 21 12 6 5 5 5 5 5 4 5 6 5 3 3 3 4 4 6 8 8 12 14 15 17 15 14 18 20 24 38 29 24 20 20 18 16 16 16
49 37 35 35 34 43 39 21 11 6 5 5 5 6 5 4 7 8 6 4 3 3 4 4 5 6 8 13 19 16 18 14 16 21 22 32 33 36 25 23 22 21 18 16 16
44 34 39 36 56 49 36 18 10 7 6 5 6 7 6 5 8 9 8 6 4 4 4 5 5 7 9 14 17 17 21 18 26 30 28 44 41 33 33 31 26 21 19 19 17
40 32 46 46 59 55 38 15 10 6 6 5 6 8 7 6 9 11 11 8 5 5 6 5 6 6 7 8 9 14 18 19 24 27 29 35 36 40 46 40 35 24 20 18 18
35 32 40 58 58 50 41 18 10 6 6 6 6 8 9 9 11 15 14 10 8 6 6 7 7 7 12 24 34 27 22 23 27 29 33 36 59 68 58 50 40 28 23 19 18
34 32 39 50 63 50 40 22 10 8 5 6 6 8 10 10 13 18 17 15 11 8 8 7 8 9 11 10 14 15 17 20 28 34 36 51 72 67 69 56 36 25 21 19 18
39 32 41 49 57 58 44 26 13 7 5 6 6 9 9 11 18 22 22 20 16 14 10 10 9 11 12 14 12 13 14 16 19 26 33 44 72 63 53 44 35 24 17 16 16
36 35 39 49 60 56 50 28 13 6 6 6 7 9 10 11 18 22 26 27 23 19 16 14 14 14 17 20 23 23 27 28 32 42 64 84 82 72 53 35 34 30 23 20 18

GFSSW_250_rhum_093.txt.gz
RH
56 54 46 39 15 15 10 9 7 4 5 3 4 2 2 2 2 3 4 4 3 3 3 3 3 4 4 4 5 6 5 7 9 12 17 20 17 18 15 22 35 42 36 34 44
72 58 54 39 20 18 14 8 7 6 4 3 4 3 2 2 2 2 3 3 3 3 3 3 3 3 4 4 5 5 5 8 9 12 18 19 18 16 16 14 23 37 36 31 40
65 63 59 47 19 24 15 11 8 5 3 3 3 4 2 2 2 2 2 3 2 3 3 3 3 3 3 4 4 5 7 9 9 12 16 17 19 14 15 12 13 26 36 32 32
55 59 48 37 26 29 17 12 8 5 4 2 3 4 3 2 2 2 2 2 2 2 2 3 3 4 4 4 4 5 7 8 10 11 14 13 16 11 14 15 13 14 30 38 35
62 59 52 53 38 33 23 13 11 5 4 2 2 3 4 3 2 2 2 2 2 2 2 3 3 3 4 4 4 5 7 9 10 13 11 13 12 12 12 16 12 13 15 27 40
60 68 58 60 36 38 26 19 12 4 3 3 2 3 3 3 2 2 2 2 2 2 2 2 3 4 4 4 4 6 7 8 10 12 10 12 12 11 12 16 13 12 12 13 24
66 73 64 56 40 36 34 20 12 3 3 3 3 3 3 3 2 2 2 2 2 2 2 2 3 3 4 4 5 6 6 7 9 12 12 11 12 12 13 14 14 13 13 14 18
65 75 67 50 48 42 32 23 11 4 3 3 3 3 3 3 2 2 2 2 2 2 2 2 2 3 3 4 4 5 6 6 8 10 12 9 12 12 14 14 15 14 13 13 15
70 81 66 51 51 44 41 24 14 5 4 3 3 3 3 2 2 2 2 2 2 2 2 2 2 3 3 3 4 5 5 7 8 10 12 10 12 13 14 15 16 15 13 13 16
67 77 65 54 57 52 40 24 13 4 4 3 3 2 2 2 2 2 2 2 2 2 2 2 2 3 3 3 4 5 7 9 10 12 12 12 15 13 14 16 16 14 14 14 16
66 72 67 57 57 57 37 28 13 4 3 2 2 2 2 2 2 2 2 2 2 2 2 2 2 3 3 3 4 5 8 9 11 12 10 14 18 15 14 16 15 14 14 14 16
70 77 63 52 68 52 38 28 15 5 3 2 3 2 2 2 2 2 2 2 2 2 2 2 3 3 3 4 4 6 7 10 10 9 8 14 18 14 15 16 14 15 16 16 17
72 72 62 66 68 46 35 33 14 5 4 4 3 2 2 2 2 2 2 2 2 2 2 2 3 4 4 5 4 5 6 11 11 10 10 14 17 13 15 15 13 17 19 19 17
73 71 63 68 67 42 36 31 14 5 4 5 4 3 3 2 2 2 2 2 2 2 2 2 2 4 5 5 5 5 6 10 11 11 11 14 17 14 15 16 16 16 20 20 18
73 70 65 66 59 38 34 30 17 4 4 6 5 3 3 2 2 2 2 2 2 2 2 2 2 4 6 7 5 5 6 8 12 11 12 12 16 15 16 19 19 17 22 20 19
70 71 64 68 50 37 35 33 18 5 6 4 5 4 3 3 2 3 2 3 2 2 2 2 3 3 7 7 6 7 7 8 11 13 12 12 13 14 16 22 18 18 18 21 23
72 72 58 67 47 36 36 31 18 7 6 6 5 4 3 3 3 3 4 3 2 2 2 2 3 3 5 8 7 6 7 8 10 9 14 15 16 15 14 22 23 19 18 17 19
71 71 60 64 43 33 35 31 20 5 6 6 6 4 3 3 3 3 4 3 3 2 2 2 3 3 5 8 7 6 9 7 7 11 16 14 16 19 20 22 25 25 20 19 20
74 66 60 56 43 35 34 30 24 6 7 7 5 4 4 3 4 3 4 4 3 2 2 2 3 3 5 7 7 6 8 9 11 14 17 15 25 22 25 23 21 22 25 23 20
73 57 66 53 39 37 35 37 23 8 7 8 7 5 4 3 5 4 4 5 4 3 2 3 4 4 4 6 5 7 10 11 12 14 18 20 27 25 24 26 22 19 20 25 27
73 62 61 44 37 37 51 49 27 12 10 9 8 5 4 4 5 5 4 6 5 3 3 3 4 5 5 5 6 9 13 14 16 18 21 25 28 26 22 23 22 22 20 20 23
77 66 58 38 35 40 52 48 36 23 10 10 8 6 4 4 5 6 5 6 6 4 4 4 4 5 4 5 6 11 14 15 18 22 25 26 28 24 20 17 20 20 21 21 22
72 74 51 38 37 42 58 56 46 37 16 11 12 8 5 5 5 6 6 8 7 5 4 4 4 5 5 8 9 16 21 23 23 25 26 28 26 24 21 18 18 19 20 21 22
72 67 44 38 36 46 59 63 61 48 18 15 11 10 6 5 5 6 5 10 9 8 5 5 5 5 6 8 11 22 29 27 29 32 33 28 26 26 28 22 24 23 23 24 24
82 56 45 36 37 40 53 76 70 62 26 22 16 12 7 6 6 6 6 8 12 10 7 6 6 5 6 7 9 20 23 26 33 36 37 38 33 36 32 29 26 28 30 28 25
74 57 43 35 37 35 43 70 79 73 52 18 18 15 9 5 6 7 7 8 13 13 8 6 7 6 7 8 10 17 22 30 35 44 66 67 61 48 42 37 31 29 32 32 30
74 55 42 37 37 41 39 55 75 79 58 25 18 17 10 8 7 6 8 8 10 15 13 10 7 7 8 9 11 16 23 29 38 50 47 44 34 39 45 47 45 38 34 37 40

GFSSW_250_rhum_096.txt.gz
RH
61 42 42 42 49 39 33 16 9 10 8 5 4 5 4 2 2 2 2 2 2 3 4 5 4 4 4 4 5 5 7 8 7 8 15 16 16 15 13 14 28 45 54 49 45
60 48 46 46 47 47 33 20 12 11 8 4 5 4 4 2 2 2 2 2 2 3 4 5 5 4 3 4 4 4 6 8 10 10 14 14 15 16 15 13 14 28 45 50 42
64 46 47 49 55 43 42 25 11 9 7 5 4 4 3 3 2 2 3 2 2 2 3 4 4 4 3 3 4 4 8 9 9 11 11 13 14 14 15 14 14 15 30 44 41
65 52 49 48 52 52 44 24 15 10 7 4 3 4 4 4 2 2 3 2 2 2 2 3 3 3 4 3 4 5 7 8 10 11 11 11 14 13 14 15 15 14 14 34 41
64 50 57 53 56 54 46 36 22 10 8 5 4 4 4 3 2 2 2 2 2 2 2 3 3 3 3 3 4 5 7 8 10 11 12 12 12 13 14 14 15 15 14 20 43
73 49 62 56 56 52 45 36 26 12 8 6 5 4 4 2 2 2 3 2 2 2 2 2 3 2 3 3 3 5 6 7 9 10 11 12 12 11 13 13 15 16 16 14 26
70 58 63 63 63 56 43 35 24 13 10 4 6 6 4 2 2 2 2 2 2 2 2 2 3 2 3 3 4 6 6 8 8 9 11 11 12 12 11 12 15 16 17 16 15
62 65 67 60 61 52 45 43 34 17 9 5 5 4 4 2 2 2 2 2 2 2 2 2 2 3 2 3 3 5 6 6 7 8 10 12 14 12 12 13 14 16 16 16 16
64 65 68 58 66 54 48 38 36 23 8 6 5 4 3 2 2 2 2 2 2 2 2 2 2 2 3 3 3 4 5 6 8 8 9 10 12 11 11 12 13 16 17 16 17
65 65 68 63 65 53 51 44 38 22 8 5 5 4 3 2 2 2 2 2 2 2 2 2 2 2 2 3 3 4 5 6 7 8 10 12 13 13 12 11 12 15 18 17 16
76 70 68 70 55 64 55 48 43 20 8 5 4 4 3 3 2 2 2 2 2 2 2 2 2 2 3 3 3 5 6 7 10 10 11 12 15 14 12 10 12 14 15 17 16
74 67 66 68 68 65 57 68 36 19 8 5 4 4 3 3 2 2 2 2 2 2 2 2 2 3 3 3 4 5 6 7 8 8 10 13 16 14 13 11 11 14 16 15 15
75 72 69 64 66 62 70 53 31 16 7 4 4 4 3 2 2 2 2 2 2 2 2 2 2 3 3 3 3 5 6 7 8 9 10 13 16 15 14 11 12 13 18 17 15
79 73 75 68 63 65 76 45 27 15 7 4 5 4 3 2 2 3 2 2 2 2 2 2 2 2 3 4 4 4 6 7 8 9 11 13 16 15 13 13 13 13 16 18 16
82 71 72 68 68 68 59 37 27 16 7 5 4 4 3 2 2 3 3 2 2 2 2 2 2 2 3 4 4 5 7 8 8 10 12 15 16 17 14 15 17 16 17 21 20
81 75 70 64 66 66 45 33 28 16 7 5 5 5 3 3 3 3 3 3 2 2 2 2 2 2 4 5 6 5 7 7 8 10 12 14 18 20 16 20 17 17 16 19 21
82 73 62 70 70 65 39 30 33 21 7 5 4 6 4 4 3 3 3 3 3 2 2 2 2 2 3 4 6 5 6 7 8 8 12 13 15 18 18 19 21 18 17 18 18
82 67 58 73 71 57 34 30 33 24 12 5 4 5 5 4 3 4 3 3 4 3 2 2 2 2 2 3 5 6 6 6 6 8 11 12 14 15 18 22 26 22 18 20 21
72 63 70 73 69 46 32 32 35 25 9 5 4 5 5 4 4 4 4 3 4 3 2 2 2 3 3 3 4 6 6 6 7 9 12 14 18 18 21 28 29 26 23 22 20
65 70 71 67 63 40 31 34 34 29 10 5 5 7 8 5 4 4 4 4 4 3 2 2 2 3 4 3 4 7 8 8 8 10 15 20 23 19 22 24 26 24 23 24 23
77 76 76 79 56 36 30 33 39 34 16 6 5 7 8 6 4 5 4 5 5 3 2 2 2 3 4 4 4 8 10 10 10 13 18 24 23 19 21 22 23 23 24 26 25
79 74 81 69 50 34 33 32 36 44 30 9 6 6 7 8 5 5 5 7 6 4 3 2 3 3 4 5 5 11 12 11 12 13 18 23 26 23 22 22 24 25 26 25 25
76 78 80 68 48 38 33 30 36 48 37 14 8 8 9 8 5 5 5 6 7 5 4 3 4 4 5 6 8 14 16 14 14 14 19 22 23 22 22 24 23 24 23 23 24
81 91 80 64 47 41 31 29 36 58 68 24 12 10 9 8 6 6 6 8 8 7 5 4 4 5 6 7 14 20 19 17 16 16 20 22 23 27 23 24 26 27 26 27 26
89 90 73 62 51 42 33 30 42 52 86 42 14 13 10 13 7 6 6 7 10 10 6 4 4 5 7 10 18 20 18 18 19 20 21 25 26 25 26 24 27 28 28 30 29
90 80 65 59 52 41 35 32 43 56 81 74 23 17 14 12 11 6 7 7 11 12 9 6 5 5 7 11 18 21 22 21 19 18 23 25 27 35 34 33 26 28 29 30 31
91 79 66 61 48 43 34 33 41 54 67 80 51 16 17 15 10 11 7 8 10 13 12 9 6 6 8 10 15 20 22 22 26 24 23 26 28 32 37 37 33 31 28 29 27

GFSSW_250_rhum_099.txt.gz
RH
56 48 39 31 38 50 37 33 36 26 22 11 8 5 5 3 3 3 2 2 2 2 2 3 3 5 6 6 7 8 7 8 11 11 13 11 16 17 14 19 49 62 50 59 67
68 48 46 34 44 55 35 38 47 37 21 11 10 5 4 3 3 4 2 2 2 2 3 3 3 4 5 7 7 7 8 11 13 13 15 14 14 17 15 13 20 36 62 67 64
74 71 50 38 45 46 42 43 45 35 24 11 8 5 4 3 4 4 3 2 2 2 2 3 3 4 4 6 7 7 9 14 13 15 16 18 14 17 15 15 15 28 52 71 62
70 80 56 46 49 46 47 48 52 36 22 13 7 5 4 4 4 4 3 2 2 3 3 3 2 3 5 5 7 7 12 10 12 14 13 16 15 14 15 14 14 15 28 58 56
89 90 57 48 54 51 54 54 43 44 24 12 7 5 4 5 4 4 3 2 2 3 3 2 2 3 4 6 7 8 11 10 12 9 11 16 17 15 16 13 15 12 17 37 56
87 92 68 54 60 58 61 51 48 48 26 11 7 5 5 5 3 3 3 2 2 2 2 2 2 3 4 6 5 8 9 9 9 11 16 18 17 14 15 13 13 13 15 20 41
90 91 80 66 66 62 59 50 49 47 27 10 8 5 5 4 3 3 2 2 2 2 2 2 2 2 3 5 6 7 7 9 9 12 14 18 18 15 14 12 13 14 16 14 17
100 100 87 80 74 67 52 48 54 48 25 11 8 6 4 4 4 2 2 2 2 2 2 2 2 2 2 4 5 5 6 6 8 12 12 14 16 16 14 13 12 13 12 14 15
100 100 87 86 72 70 60 47 46 42 28 10 10 5 5 4 4 2 2 2 2 2 2 2 2 2 2 3 3 4 5 7 8 11 11 13 15 16 14 13 14 15 13 14 16
100 100 96 98 76 63 62 48 42 41 30 12 9 5 3 4 3 2 2 2 2 2 2 2 2 2 2 2 2 4 5 5 6 8 10 12 15 15 14 12 15 16 14 14 15
96 100 100 97 80 71 57 46 52 40 29 15 8 4 4 3 3 2 2 2 2 2 2 2 2 2 2 2 3 4 4 6 8 12 12 14 14 13 16 12 13 15 16 15 15
98 100 100 91 86 75 57 47 49 42 28 17 7 5 5 3 3 2 2 2 2 2 2 2 2 2 2 2 3 3 4 6 6 9 10 13 14 13 15 11 11 12 15 15 15
100 100 100 89 87 75 51 56 45 39 26 13 7 5 5 4 3 2 2 2 2 2 2 2 2 2 2 3 3 3 4 6 7 8 10 12 14 14 16 12 11 12 12 13 14
100 100 100 90 88 63 55 57 49 33 26 12 8 5 5 4 2 2 2 2 3 2 2 2 2 2 3 3 3 4 4 6 7 8 10 11 11 12 17 13 10 11 12 14 15
100 100 100 95 86 54 64 63 43 32 22 12 8 6 5 4 2 2 2 3 3 2 2 2 2 2 2 3 4 4 4 7 7 9 10 12 14 13 14 15 13 12 13 14 16
100 100 99 94 82 66 66 63 39 28 21 12 8 5 5 4 3 2 3 3 3 3 2 2 2 2 2 4 4 4 4 6 8 9 9 10 12 15 12 18 20 16 14 17 20
100 100 98 97 62 71 67 56 36 28 20 12 7 5 4 4 3 3 3 3 3 3 3 2 2 2 2 3 4 5 5 6 8 9 9 10 12 16 16 17 20 21 18 18 20
100 100 97 92 72 76 75 49 32 27 19 11 7 6 5 4 3 3 3 3 3 4 3 2 2 2 2 3 4 5 6 6 7 8 8 9 11 14 16 17 19 18 20 18 18
100 100 100 72 77 87 68 41 32 28 21 11 7 6 6 5 4 4 4 3 4 4 3 2 2 2 2 3 4 6 7 6 7 8 9 9 12 14 15 16 19 23 26 25 22
100 100 93 72 81 87 58 38 28 28 21 12 8 7 6 6 4 4 4 4 4 4 2 2 2 2 2 3 4 7 8 7 7 8 9 9 12 14 14 16 20 24 26 26 26
100 100 94 69 91 80 49 36 27 37 30 14 10 7 8 7 4 4 5 4 5 4 3 2 2 2 3 4 4 5 7 8 8 9 10 11 12 15 19 22 25 28 26 27 27
100 100 87 76 96 68 45 35 26 34 38 23 14 8 8 9 8 5 5 4 5 5 3 2 3 3 3 4 5 6 9 10 9 9 11 11 13 16 23 27 28 30 31 29 27
100 100 80 89 94 61 43 36 30 34 45 38 19 10 10 10 9 6 5 5 6 6 4 3 3 3 4 5 6 10 12 12 10 10 11 11 13 15 21 22 22 24 26 28 27
100 91 82 94 83 58 42 37 29 36 44 54 33 14 11 12 11 7 6 6 6 7 5 4 4 4 5 6 11 13 16 15 12 12 12 12 14 15 23 24 25 28 27 28 29
100 89 90 100 75 58 45 36 31 32 38 50 50 23 12 14 14 10 7 7 7 8 8 4 4 4 5 9 16 20 18 15 13 13 14 16 18 22 23 25 27 29 29 30 32
93 90 100 95 72 61 44 39 31 31 40 43 54 42 15 13 13 15 9 8 8 9 11 7 5 6 6 9 19 24 20 16 14 13 14 17 19 19 20 25 28 32 33 36 35
98 93 95 88 73 62 43 40 33 34 43 42 58 62 29 18 12 13 14 8 9 8 12 10 5 6 6 9 18 27 21 18 16 14 14 15 18 21 21 27 28 30 33 30 31

GFSSW_250_rhum_102.txt.gz
RH
72 82 86 89 78 56 56 51 40 38 44 36 29 17 8 6 5 3 3 3 2 2 3 2 2 3 3 2 3 4 4 4 9 10 12 20 18 16 14 17 22 47 24 56 79
85 100 77 100 93 68 64 55 48 38 43 38 33 17 9 7 5 3 4 3 3 2 3 2 2 2 3 3 4 4 5 7 10 13 15 21 14 17 20 17 15 15 26 54 66
100 100 86 100 97 85 72 57 44 47 54 42 37 17 10 6 4 4 4 3 3 2 2 2 2 3 3 3 4 5 7 14 12 15 21 22 22 16 20 19 16 13 13 67 66
100 100 97 94 98 91 82 67 47 49 54 50 37 16 9 6 4 4 4 3 3 3 2 2 2 3 3 4 5 6 10 10 11 18 20 18 17 18 20 19 17 16 13 57 100
100 93 97 89 92 89 84 67 56 51 52 44 33 18 8 6 4 5 4 3 3 2 2 2 2 3 3 4 5 7 12 14 14 14 16 22 23 20 18 22 22 16 12 28 83
100 99 98 100 98 92 84 68 53 54 56 50 32 15 9 6 6 5 4 3 3 2 2 2 2 3 3 3 4 7 11 12 12 12 24 20 33 21 17 24 25 21 15 13 42
100 100 96 100 100 99 81 70 56 59 55 43 31 12 7 7 6 5 4 3 2 2 2 2 2 3 3 3 4 6 10 12 11 20 18 21 27 24 19 22 23 20 17 15 23
95 82 100 100 100 98 86 68 64 48 51 38 26 14 8 7 5 5 5 3 2 2 2 2 2 2 3 2 4 5 9 9 9 15 18 22 25 30 17 19 34 16 16 17 16
69 73 98 100 100 96 84 77 70 50 45 40 24 14 8 6 5 5 4 4 2 2 2 2 2 2 2 2 3 4 6 10 11 14 18 24 27 33 29 18 23 17 16 22 16
58 69 100 100 100 86 88 90 64 55 46 41 24 13 7 6 5 5 4 3 2 2 2 2 2 2 2 2 3 4 6 10 11 12 16 17 29 35 40 20 14 16 15 22 17
51 87 100 100 100 90 92 97 63 51 56 34 24 11 6 5 5 5 4 3 2 2 2 2 2 2 2 2 2 3 5 8 10 12 16 19 25 24 27 18 16 16 18 20 17
72 100 100 100 100 98 97 92 57 59 55 35 23 10 6 4 5 5 4 3 2 2 2 2 2 2 2 2 2 3 4 6 8 9 14 19 18 19 17 18 15 17 21 19 18
88 100 100 100 100 100 100 72 51 68 53 35 17 7 5 5 5 4 3 2 2 2 2 2 2 2 2 3 2 2 4 5 7 10 12 13 16 16 18 18 13 17 21 18 16
94 100 100 100 100 100 100 62 56 69 45 29 14 7 6 4 5 4 3 2 2 2 2 2 2 2 2 3 3 3 4 5 7 9 10 12 11 9 13 17 15 16 17 19 18
100 100 100 100 100 100 84 56 69 58 39 25 12 6 4 4 5 4 3 2 3 2 2 2 2 2 2 2 3 3 4 5 5 8 9 9 9 8 13 22 19 18 20 20 18
100 100 100 100 100 98 74 66 65 50 34 20 11 7 4 4 6 4 3 2 3 3 3 2 2 2 2 3 3 3 4 4 5 6 7 9 8 10 11 21 21 24 20 19 17
100 100 100 100 100 95 63 77 62 42 29 18 11 6 4 5 7 5 3 3 3 3 3 2 2 2 2 2 3 4 4 4 5 6 7 9 8 11 15 20 20 21 20 18 16
100 100 100 100 99 88 69 73 57 38 26 18 11 6 4 5 6 5 3 3 3 3 3 2 2 2 2 2 3 5 4 4 5 6 7 7 8 11 12 16 19 18 21 21 20
100 100 100 100 100 87 88 70 48 34 24 18 12 8 6 7 7 5 3 3 3 3 3 2 2 2 2 2 3 4 4 5 5 7 8 9 10 10 12 14 18 20 17 21 24
100 100 100 100 97 87 91 70 42 32 24 18 15 9 6 8 8 5 4 3 3 4 3 2 2 2 2 2 3 5 7 6 6 8 8 10 10 10 12 16 18 20 18 20 21
100 100 100 100 83 99 82 68 42 29 23 26 17 10 7 6 7 6 4 4 4 4 3 2 2 2 2 3 3 4 8 8 8 10 9 10 10 10 13 14 17 19 23 21 22
100 100 100 91 90 100 85 56 40 29 25 27 22 14 10 9 9 7 5 5 4 5 3 2 2 2 3 4 4 5 7 9 8 7 6 10 11 11 12 15 16 19 21 22 25
100 100 100 81 96 100 88 53 38 28 26 28 38 18 14 12 12 8 6 5 5 6 4 3 3 3 4 4 5 6 7 10 12 10 11 12 13 12 13 14 16 18 20 23 27
99 100 100 86 100 99 78 53 37 26 26 33 47 31 18 17 13 11 7 4 6 7 7 4 3 3 4 6 7 8 9 12 14 13 13 12 13 12 13 15 16 17 19 21 23
100 100 91 95 100 85 77 56 36 26 27 34 41 49 26 19 18 14 10 6 5 6 9 6 4 4 4 6 10 11 14 15 16 15 13 11 13 13 14 15 15 17 18 20 21
100 96 86 100 100 84 75 58 35 26 27 32 42 51 42 26 19 15 16 11 6 7 10 9 6 5 5 5 8 12 16 18 18 16 14 13 14 14 14 15 16 17 18 20 22
96 98 97 99 100 87 76 55 36 27 28 33 45 51 57 35 21 20 17 18 11 7 9 13 8 6 7 6 9 12 17 20 20 18 16 15 15 16 16 18 20 20 22 27 32